Location: Rock Island IL
(41.5000°N, 90.5500°W)
Time: 18:21:42
(UTC-06:00)

N. Korean satellite - Visible Passes

Search period start: 24 November 2017 00:00
Search period end: 04 December 2017 00:00
Orbit: 460 x 514 km, 97.2° (Epoch: 24 November)

Date Brightness Start Highest point End Pass type
(mag) Time Alt. Az. Time Alt. Az. Time Alt. Az.
24 Nov 8.4 06:24:44 10° NNE 06:28:16 38° E 06:31:48 10° SSE visible
24 Nov 8.4 18:34:34 10° SSW 18:37:45 32° W 18:41:01 10° NNW visible
25 Nov 9.7 06:01:50 10° NE 06:04:40 20° E 06:07:29 10° SE visible
25 Nov 6.8 18:10:41 10° S 18:14:12 68° W 18:17:48 10° NNW visible
26 Nov 10.4 05:40:13 10° ENE 05:40:59 10° E 05:41:45 10° ESE visible
26 Nov 6.6 17:47:15 10° SSE 17:50:43 56° ENE 17:54:17 10° N visible
27 Nov 7.4 17:24:15 10° SE 17:27:19 28° ENE 17:30:28 10° N visible
27 Nov 9.5 18:58:29 10° SW 19:00:53 17° W 19:03:18 10° NW visible
28 Nov 8.4 06:24:15 10° NNE 06:27:47 37° E 06:31:18 10° SSE visible
28 Nov 8.2 17:01:50 10° ESE 17:04:00 15° ENE 17:06:12 10° NNE visible
28 Nov 8.4 18:34:00 10° SSW 18:37:13 32° W 18:40:32 10° NNW visible
29 Nov 9.7 06:01:20 10° NE 06:04:10 20° E 06:06:58 10° SE visible
29 Nov 6.8 18:10:06 10° S 18:13:39 69° W 18:17:18 10° NNW visible
30 Nov 10.4 05:39:45 10° E 05:40:28 10° E 05:41:09 10° E visible
30 Nov 6.6 17:46:39 10° SSE 17:50:10 56° ENE 17:53:46 10° N visible
01 Dec 7.4 17:23:38 10° SE 17:26:45 28° ENE 17:29:56 10° N visible
01 Dec 9.5 18:57:51 10° SW 19:00:18 17° W 19:02:48 10° NW visible
02 Dec 8.4 06:23:42 10° NNE 06:27:14 37° E 06:30:43 10° SSE visible
02 Dec 8.2 17:01:12 10° ESE 17:03:25 16° ENE 17:05:39 10° NNE visible
02 Dec 8.4 18:33:21 10° SSW 18:36:38 33° W 18:40:00 10° NNW visible
03 Dec 9.7 06:00:46 10° NE 06:03:35 20° E 06:06:21 10° SE visible
03 Dec 6.8 18:09:28 10° S 18:13:03 70° W 18:16:44 10° NNW visible
